Location: Unspecified
(0.0000°N, 0.0000°E)
Time: 05:13:03
(UTC+00:00)

Tiros 1 despin weight - Visible Passes

Search period start: 18 June 2019 00:00
Search period end: 28 June 2019 00:00
Orbit: 595 x 642 km, 48.2° (Epoch: 17 June)

Date Brightness Start Highest point End Pass type
(mag) Time Alt. Az. Time Alt. Az. Time Alt. Az.
22 Jun ? 18:49:33 10° S 18:53:04 21° SE 18:55:10 16° E visible
22 Jun ? 20:30:33 10° WSW 20:32:30 20° W 20:32:30 20° W visible
23 Jun ? 19:05:08 10° SSW 19:09:41 57° SE 19:14:08 10° NE visible
23 Jun ? 20:50:09 10° WNW 20:51:05 11° NW 20:52:02 10° NW visible
24 Jun ? 19:21:46 10° SW 19:26:14 50° NW 19:30:38 10° NNE visible
25 Jun ? 19:39:34 10° W 19:42:49 19° NW 19:46:01 10° N visible
27 Jun ? 04:43:39 10° NE 04:44:38 11° NE 04:45:37 10° ENE visible
27 Jun ? 18:30:24 10° WSW 18:34:33 32° NW 18:38:38 10° NNE visible
